Weather History for Reno, NV

Change the Weather History Date:

Tuesday, November 22, 2011

  Actual Average Record
Temperature  
Mean Temperature 45 °F 40 °F  
Max Temperature 61 °F 52 °F 69 °F (1915)
Min Temperature 29 °F 29 °F 7 °F (1975)
Degree Days  
Heating Degree Days 20 25  
Month to date heating degree days 513 460  
Since 1 July heating degree days 780 896  
Cooling Degree Days 0 0  
Month to date cooling degree days 0 0  
Year to date cooling degree days 964 839  
Moisture  
Dew Point 17 °F    
Average Humidity 44    
Maximum Humidity 75    
Minimum Humidity 12    
Precipitation  
Precipitation 0.00 in 0.03 in 0.29 in (1982)
Month to date precipitation 0.06 0.58  
Year to date precipitation 4.92 6.13  
Snow  
Snow 0.00 in 0.10 in 3.30 in (1982)
Month to date snowfall T 2.1  
Since 1 July snowfall T 2.5  
Since 1 September snowfall T 2.5  
Snow Depth 0.00 in    
Sea Level Pressure  
Sea Level Pressure 30.12 in    
Wind  
Wind Speed 2 mph (North)    
Max Wind Speed 16 mph    
Max Gust Speed 25 mph    
Visibility 10 miles    
Events      
T = Trace of Precipitation, MM = Missing Value Source: NWS Daily Summary

Daily Weather History Graph

Daily Weather History Graph

Search for Another Location

Airport:

Trip Planner

Search our weather history database for the weather conditions in past years. The results will help you decide how hot, cold, wet, or windy it might be!

Date:

Astronomy

Nov. 22, 2011 Rise Set
Actual Time 6:50 AM PST 4:39 PM PST
Civil Twilight 6:21 AM PST 5:08 PM PST
Nautical Twilight 5:48 AM PST 5:41 PM PST
Astronomical Twilight 5:16 AM PST 6:13 PM PST
Moon 3:47 AM PST (11/22) 2:41 PM PST (11/22)
Length of Visible Light 10h 47m
Length of Day
9h 48m
Waning Crescent, 9% of the Moon is Illuminated
Nov 22
Waning Crescent
Nov 24
New
Dec 2
First Quarter
Dec 10
Full
Dec 17
Last Quarter

Hourly Weather History & Observations

Time (PST) Temp. Windchill Dew Point Humidity Pressure Visibility Wind Dir Wind Speed Gust Speed Precip Events Conditions
12:55 AM 32.0 °F 28.7 °F 23.0 °F 69% 30.17 in 10.0 mi NNW 3.5 mph - N/A   Partly Cloudy
1:55 AM 30.9 °F - 23.0 °F 72% 30.18 in 10.0 mi Calm Calm - N/A   Partly Cloudy
2:55 AM 30.9 °F - 23.0 °F 72% 30.18 in 10.0 mi Calm Calm - N/A   Scattered Clouds
3:55 AM 30.0 °F - 21.0 °F 69% 30.17 in 10.0 mi Calm Calm - N/A   Scattered Clouds
4:55 AM 32.0 °F - 23.0 °F 69% 30.16 in 10.0 mi Calm Calm - N/A   Scattered Clouds
5:55 AM 30.9 °F 27.5 °F 21.9 °F 69% 30.18 in 10.0 mi NNE 3.5 mph - N/A   Mostly Cloudy
6:55 AM 28.4 °F - 21.2 °F 74% 30.18 in 10.0 mi Calm Calm - N/A   Mostly Cloudy
7:55 AM 30.9 °F - 21.9 °F 69% 30.22 in 10.0 mi Calm Calm - N/A   Mostly Cloudy
8:55 AM 36.0 °F - 21.0 °F 55% 30.22 in 10.0 mi Calm Calm - N/A   Mostly Cloudy
9:55 AM 42.1 °F - 21.0 °F 43% 30.22 in 10.0 mi Calm Calm - N/A   Mostly Cloudy
10:55 AM 48.0 °F - 19.0 °F 32% 30.19 in 10.0 mi Calm Calm - N/A   Mostly Cloudy
11:55 AM 54.0 °F - 14.0 °F 21% 30.14 in 10.0 mi North 3.5 mph - N/A   Mostly Cloudy
12:55 PM 55.9 °F - 10.9 °F 17% 30.12 in 10.0 mi NE 4.6 mph - N/A   Mostly Cloudy
1:55 PM 57.9 °F - 10.0 °F 15% 30.07 in 10.0 mi Calm Calm - N/A   Mostly Cloudy
2:55 PM 60.1 °F - 9.0 °F 13% 30.05 in 10.0 mi Calm Calm - N/A   Mostly Cloudy
3:55 PM 59.0 °F - 9.0 °F 14% 30.06 in 10.0 mi Variable 5.8 mph 19.6 mph N/A   Mostly Cloudy
4:55 PM 53.1 °F - 12.0 °F 20% 30.06 in 10.0 mi SE 5.8 mph - N/A   Scattered Clouds
5:55 PM 52.0 °F - 14.0 °F 22% 30.07 in 10.0 mi Variable 3.5 mph - N/A   Partly Cloudy
6:55 PM 48.0 °F - 15.1 °F 27% 30.08 in 10.0 mi NNW 4.6 mph - N/A   Clear
7:55 PM 46.9 °F - 14.0 °F 27% 30.06 in 10.0 mi Calm Calm - N/A   Clear
8:55 PM 46.9 °F - 15.1 °F 28% 30.05 in 10.0 mi NW 5.8 mph - N/A   Clear
9:55 PM 42.1 °F 39.2 °F 16.0 °F 35% 30.04 in 10.0 mi North 4.6 mph - N/A   Scattered Clouds
10:55 PM 39.2 °F - 15.8 °F 39% 30.05 in 10.0 mi Calm Calm - N/A   Partly Cloudy
11:55 PM 35.1 °F 32.2 °F 16.0 °F 46% 30.01 in 10.0 mi North 3.5 mph - N/A   Clear